{"data":{"norad_id":66813,"intl_designator":"2025-278Y","name":"STARLINK-36042","alt_names":[],"object_type":"PAYLOAD","status":"ACTIVE","operator":null,"country":"US","launch_date":"2025-12-01","launch_site_code":"AFETR","launch_vehicle":null,"mission":null,"orbit_class":"UNKNOWN","rcs_meters":null,"size_class":null,"mass_kg":null,"dimensions":null,"purposes":["comms"],"wikipedia_slug":null,"has_3d_model":false,"image_url":null,"decayed_at":null,"tle_current":{"epoch":"2026-05-25T03:10:07.946688Z","epoch_age_seconds":63393,"freshness":"FRESH","line1":"1 66813U 25278Y   26145.13203642  .00028063  00000+0  10250-2 0  9995","line2":"2 66813  43.0020  42.3387 0001233 258.2622 101.8091 15.27595464 26903","mean_motion":15.27595464,"eccentricity":0.0001233,"inclination_deg":43.002,"raan_deg":42.3387,"arg_perigee_deg":258.2622,"mean_anomaly_deg":101.8091,"bstar":0.001025,"rev_number":2690,"period_min":94.265794442029,"perigee_km":482.15681311482,"apogee_km":483.84877018744,"semimajor_km":6861.1397916511,"source":"CELESTRAK","updated_at":"2026-05-25T13:38:21.331699Z"}}}